| time (UTC) | temp F | wind direction | speed knots | gust knots | rain 1hr in | rain 24hr in | rain mn in | humidity % | barometer mb |
| 20260506002004 | 72 | 3 | 0.0 | 1.7 | 0.00 | 0.00 | 0.00 | 48 | 1013.7 |
| 20260506001509 | 73 | 3 | 0.0 | 1.7 | 0.00 | 0.00 | 0.00 | 48 | 1013.7 |
| 20260506001004 | 73 | 30 | 0.0 | 0.9 | 0.00 | 0.00 | 0.00 | 49 | 1013.7 |
| 20260506000507 | 74 | 30 | 0.0 | 0.9 | 0.00 | 0.00 | 0.00 | 48 | 1013.7 |
| 20260506000008 | 74 | 50 | 0.0 | 0.0 | 0.00 | 0.00 | 0.00 | 48 | 1013.7 |
| 20260505235505 | 74 | 15 | 0.0 | 0.0 | 0.00 | 0.00 | 0.00 | 48 | 1013.5 |
| 20260505235006 | 74 | 15 | 0.0 | 0.9 | 0.00 | 0.00 | 0.00 | 48 | 1013.5 |
| 20260505234510 | 74 | 15 | 0.0 | 0.9 | 0.00 | 0.00 | 0.00 | 47 | 1013.6 |
| 20260505234007 | 75 | 120 | 0.0 | 0.9 | 0.00 | 0.00 | 0.00 | 46 | 1013.6 |
| 20260505233504 | 75 | 120 | 0.0 | 0.9 | 0.00 | 0.00 | 0.00 | 47 | 1013.6 |
| 20260505233016 | 75 | 136 | 0.0 | 1.7 | 0.00 | 0.00 | 0.00 | 47 | 1013.5 |
| 20260505232505 | 75 | 137 | 0.0 | 1.7 | 0.00 | 0.00 | 0.00 | 47 | 1013.5 |
| 20260505232003 | 75 | 6 | 0.0 | 0.0 | 0.00 | 0.00 | 0.00 | 47 | 1013.5 |
| 20260505231511 | 75 | 6 | 0.0 | 0.0 | 0.00 | 0.00 | 0.00 | 46 | 1013.6 |
| 20260505231006 | 75 | 6 | 0.0 | 0.0 | 0.00 | 0.00 | 0.00 | 45 | 1013.7 |
| 20260505230506 | 75 | 6 | 0.0 | 0.0 | 0.00 | 0.00 | 0.00 | 45 | 1013.7 |
| 20260505230011 | 75 | 6 | 0.0 | 0.9 | 0.00 | 0.00 | 0.00 | 45 | 1013.6 |
| 20260505225510 | 75 | 6 | 0.0 | 0.9 | 0.00 | 0.00 | 0.00 | 44 | 1013.6 |
| 20260505225006 | 75 | 6 | 0.0 | 4.3 | 0.00 | 0.00 | 0.00 | 44 | 1013.6 |
| 20260505224513 | 76 | 6 | 0.0 | 4.3 | 0.00 | 0.00 | 0.00 | 43 | 1013.6 |
| 20260505224007 | 76 | 278 | 0.0 | 1.7 | 0.00 | 0.00 | 0.00 | 44 | 1013.7 |
| 20260505223508 | 76 | 341 | 0.0 | 2.6 | 0.00 | 0.00 | 0.00 | 42 | 1013.6 |
| 20260505223016 | 76 | 153 | 0.0 | 2.6 | 0.00 | 0.00 | 0.00 | 42 | 1013.6 |
| 20260505222508 | 76 | 181 | 0.0 | 0.9 | 0.00 | 0.00 | 0.00 | 41 | 1013.6 |
| 20260505222012 | 76 | 217 | 0.0 | 1.7 | 0.00 | 0.00 | 0.00 | 40 | 1013.4 |
| 20260505221514 | 77 | 322 | 0.0 | 1.7 | 0.00 | 0.00 | 0.00 | 42 | 1013.4 |
| 20260505221006 | 77 | 103 | 0.0 | 1.7 | 0.00 | 0.00 | 0.00 | 41 | 1013.5 |
| 20260505220506 | 77 | 228 | 0.0 | 0.9 | 0.00 | 0.00 | 0.00 | 40 | 1013.8 |
| 20260505220036 | 76 | 252 | 0.0 | 0.9 | 0.00 | 0.00 | 0.00 | 40 | 1013.5 |
| 20260505215510 | 77 | 241 | 0.0 | 2.6 | 0.00 | 0.00 | 0.00 | 39 | 1013.5 |
| 20260505215006 | 77 | 229 | 0.0 | 2.6 | 0.00 | 0.00 | 0.00 | 40 | 1013.7 |
| 20260505214525 | 76 | 202 | 0.0 | 0.9 | 0.00 | 0.00 | 0.00 | 39 | 1013.8 |
| 20260505214007 | 77 | 250 | 0.0 | 0.9 | 0.00 | 0.00 | 0.00 | 40 | 1013.8 |
| 20260505213510 | 77 | 244 | 0.0 | 3.5 | 0.00 | 0.00 | 0.00 | 40 | 1013.7 |
| 20260505213019 | 77 | 279 | 0.9 | 3.5 | 0.00 | 0.00 | 0.00 | 41 | 1013.9 |
| 20260505212507 | 77 | 169 | 0.0 | 2.6 | 0.00 | 0.00 | 0.00 | 41 | 1013.8 |
| 20260505212011 | 77 | 332 | 0.0 | 1.7 | 0.00 | 0.00 | 0.00 | 40 | 1013.7 |
| 20260505211517 | 77 | 184 | 0.0 | 2.6 | 0.00 | 0.00 | 0.00 | 40 | 1013.7 |
| 20260505211007 | 77 | 17 | 0.0 | 2.6 | 0.00 | 0.00 | 0.00 | 42 | 1013.8 |
| 20260505210508 | 77 | 309 | 0.0 | 2.6 | 0.00 | 0.00 | 0.00 | 41 | 1013.8 |
| 20260505210017 | 77 | 146 | 0.0 | 1.7 | 0.00 | 0.00 | 0.00 | 41 | 1013.9 |
| 20260505205513 | 77 | 136 | 0.0 | 0.9 | 0.00 | 0.00 | 0.00 | 40 | 1013.9 |
| 20260505205007 | 77 | 144 | 0.0 | 0.9 | 0.00 | 0.00 | 0.00 | 40 | 1014.1 |
| 20260505204519 | 77 | 153 | 0.0 | 2.6 | 0.00 | 0.00 | 0.00 | 39 | 1014.0 |
| 20260505204006 | 77 | 242 | 0.0 | 2.6 | 0.00 | 0.00 | 0.00 | 42 | 1014.1 |
| 20260505203507 | 77 | 4 | 0.0 | 2.6 | 0.00 | 0.00 | 0.00 | 41 | 1014.0 |
| 20260505203016 | 77 | 75 | 0.0 | 2.6 | 0.00 | 0.00 | 0.00 | 40 | 1014.1 |
| 20260505202508 | 77 | 309 | 0.0 | 1.7 | 0.00 | 0.00 | 0.00 | 40 | 1014.3 |
| 20260505202010 | 77 | 300 | 0.0 | 3.5 | 0.00 | 0.00 | 0.00 | 41 | 1014.5 |
| 20260505201518 | 77 | 150 | 0.0 | 5.2 | 0.00 | 0.00 | 0.00 | 38 | 1014.4 |
| 20260505201008 | 77 | 215 | 0.9 | 5.2 | 0.00 | 0.00 | 0.00 | 39 | 1014.5 |
| 20260505200504 | 77 | 163 | 0.0 | 1.7 | 0.00 | 0.00 | 0.00 | 39 | 1014.6 |
| 20260505200005 | 77 | 250 | 0.0 | 1.7 | 0.00 | 0.00 | 0.00 | 40 | 1014.7 |
| 20260505195504 | 77 | 196 | 0.9 | 1.7 | 0.00 | 0.00 | 0.00 | 41 | 1014.9 |
| 20260505195004 | 77 | 314 | 0.0 | 4.3 | 0.00 | 0.00 | 0.00 | 42 | 1014.9 |
| 20260505194516 | 77 | 297 | 0.0 | 4.3 | 0.00 | 0.00 | 0.00 | 40 | 1014.9 |
| 20260505194012 | 77 | 233 | 0.0 | 2.6 | 0.00 | 0.00 | 0.00 | 40 | 1014.9 |
| 20260505193508 | 78 | 191 | 0.0 | 2.6 | 0.00 | 0.00 | 0.00 | 39 | 1014.9 |
| 20260505193011 | 78 | 345 | 0.0 | 2.6 | 0.00 | 0.00 | 0.00 | 43 | 1014.9 |
| 20260505192507 | 78 | 159 | 0.0 | 2.6 | 0.00 | 0.00 | 0.00 | 40 | 1014.9 |
| 20260505192003 | 78 | 203 | 0.0 | 2.6 | 0.00 | 0.00 | 0.00 | 38 | 1015.0 |
| 20260505191503 | 78 | 200 | 0.0 | 2.6 | 0.00 | 0.00 | 0.00 | 38 | 1015.0 |
| 20260505191004 | 78 | 30 | 0.0 | 3.5 | 0.00 | 0.00 | 0.00 | 38 | 1015.1 |
| 20260505190503 | 79 | 32 | 0.9 | 7.0 | 0.00 | 0.00 | 0.00 | 38 | 1015.2 |
| 20260505190005 | 79 | 352 | 0.9 | 7.0 | 0.00 | 0.00 | 0.00 | 40 | 1015.2 |
| 20260505185504 | 79 | 207 | 0.0 | 4.3 | 0.00 | 0.00 | 0.00 | 39 | 1015.2 |
| 20260505185007 | 78 | 181 | 0.9 | 5.2 | 0.00 | 0.00 | 0.00 | 40 | 1015.4 |
| 20260505184504 | 78 | 299 | 1.7 | 5.2 | 0.00 | 0.00 | 0.00 | 39 | 1015.5 |
| 20260505184006 | 79 | 34 | 0.0 | 7.8 | 0.00 | 0.00 | 0.00 | 39 | 1015.6 |
| 20260505183506 | 79 | 201 | 0.9 | 7.8 | 0.00 | 0.00 | 0.00 | 40 | 1015.6 |
| 20260505183007 | 79 | 292 | 0.0 | 2.6 | 0.00 | 0.00 | 0.00 | 38 | 1015.7 |
| 20260505182507 | 79 | 354 | 0.0 | 3.5 | 0.00 | 0.00 | 0.00 | 40 | 1015.8 |
| 20260505182008 | 78 | 285 | 0.0 | 4.3 | 0.00 | 0.00 | 0.00 | 40 | 1015.8 |
| 20260505181515 | 78 | 201 | 0.9 | 4.3 | 0.00 | 0.00 | 0.00 | 40 | 1015.7 |
| 20260505181012 | 78 | 278 | 0.0 | 1.7 | 0.00 | 0.00 | 0.00 | 42 | 1016.0 |
| 20260505180504 | 78 | 209 | 0.0 | 1.7 | 0.00 | 0.00 | 0.00 | 40 | 1016.1 |
| 20260505180004 | 79 | 340 | 0.0 | 1.7 | 0.00 | 0.00 | 0.00 | 40 | 1015.9 |
| 20260505175503 | 78 | 201 | 0.0 | 0.9 | 0.00 | 0.00 | 0.00 | 41 | 1016.0 |
| 20260505175004 | 78 | 248 | 0.0 | 3.5 | 0.00 | 0.00 | 0.00 | 40 | 1016.1 |
| 20260505174503 | 78 | 238 | 0.0 | 3.5 | 0.00 | 0.00 | 0.00 | 40 | 1016.2 |
| 20260505174005 | 78 | 359 | 0.9 | 3.5 | 0.00 | 0.00 | 0.00 | 43 | 1016.2 |
| 20260505173503 | 78 | 274 | 0.0 | 3.5 | 0.00 | 0.00 | 0.00 | 40 | 1016.3 |
| 20260505173008 | 78 | 192 | 0.0 | 6.1 | 0.00 | 0.00 | 0.00 | 42 | 1016.3 |
| 20260505172509 | 78 | 288 | 0.0 | 6.1 | 0.00 | 0.00 | 0.00 | 40 | 1016.3 |
| 20260505172009 | 78 | 275 | 0.9 | 6.1 | 0.00 | 0.00 | 0.00 | 40 | 1016.3 |
| 20260505171513 | 78 | 233 | 0.0 | 2.6 | 0.00 | 0.00 | 0.00 | 39 | 1016.3 |
| 20260505171008 | 77 | 195 | 0.0 | 2.6 | 0.00 | 0.00 | 0.00 | 43 | 1016.2 |
| 20260505170508 | 77 | 274 | 0.0 | 3.5 | 0.00 | 0.00 | 0.00 | 38 | 1016.2 |
| 20260505170016 | 77 | 330 | 0.9 | 3.5 | 0.00 | 0.00 | 0.00 | 40 | 1016.1 |
| 20260505165508 | 77 | 278 | 0.0 | 2.6 | 0.00 | 0.00 | 0.00 | 39 | 1016.1 |
| 20260505165009 | 77 | 359 | 0.0 | 3.5 | 0.00 | 0.00 | 0.00 | 42 | 1016.2 |
| 20260505164506 | 77 | 311 | 0.0 | 3.5 | 0.00 | 0.00 | 0.00 | 42 | 1016.3 |
| 20260505164004 | 77 | 162 | 0.0 | 3.5 | 0.00 | 0.00 | 0.00 | 41 | 1016.3 |
| 20260505163504 | 77 | 217 | 0.0 | 3.5 | 0.00 | 0.00 | 0.00 | 40 | 1016.5 |
| 20260505163008 | 77 | 249 | 0.0 | 0.9 | 0.00 | 0.00 | 0.00 | 41 | 1016.5 |
| 20260505162504 | 77 | 264 | 0.0 | 4.3 | 0.00 | 0.00 | 0.00 | 41 | 1016.5 |
| 20260505162007 | 77 | 228 | 0.9 | 4.3 | 0.00 | 0.00 | 0.00 | 42 | 1016.5 |
| 20260505161506 | 77 | 138 | 0.0 | 6.1 | 0.00 | 0.00 | 0.00 | 40 | 1016.7 |
| 20260505161006 | 77 | 127 | 0.9 | 6.1 | 0.00 | 0.00 | 0.00 | 41 | 1016.6 |
| 20260505160504 | 76 | 36 | 0.0 | 5.2 | 0.00 | 0.00 | 0.00 | 42 | 1016.6 |
| 20260505153006 | 76 | 6 | 0.0 | 3.5 | 0.00 | 0.00 | 0.00 | 43 | 1016.5 |
| 20260505152504 | 76 | 149 | 0.0 | 0.9 | 0.00 | 0.00 | 0.00 | 41 | 1016.4 |
| 20260505152003 | 75 | 149 | 0.0 | 0.9 | 0.00 | 0.00 | 0.00 | 42 | 1016.5 |
| 20260505151509 | 75 | 21 | 0.0 | 1.7 | 0.00 | 0.00 | 0.00 | 46 | 1016.6 |
| 20260505151005 | 74 | 41 | 0.0 | 1.7 | 0.00 | 0.00 | 0.00 | 46 | 1016.7 |
| 20260505150504 | 74 | 348 | 0.0 | 2.6 | 0.00 | 0.00 | 0.00 | 48 | 1016.6 |
| 20260505140504 | 67 | 17 | 0.0 | 0.0 | 0.00 | 0.00 | 0.00 | 63 | 1016.5 |
| 20260505125006 | 56 | 149 | 0.0 | 0.0 | 0.00 | 0.00 | 0.00 | 81 | 1016.1 |
| 20260505124508 | 55 | 149 | 0.0 | 0.0 | 0.00 | 0.00 | 0.00 | 81 | 1016.1 |
| 20260505124008 | 54 | 149 | 0.0 | 0.0 | 0.00 | 0.00 | 0.00 | 83 | 1016.0 |
| 20260505123508 | 53 | 149 | 0.0 | 0.0 | 0.00 | 0.00 | 0.00 | 85 | 1016.0 |
| 20260505123015 | 53 | 149 | 0.0 | 0.0 | 0.00 | 0.00 | 0.00 | 86 | 1016.1 |
| 20260505122507 | 52 | 149 | 0.0 | 0.0 | 0.00 | 0.00 | 0.00 | 89 | 1016.1 |
| 20260505122013 | 51 | 149 | 0.0 | 0.0 | 0.00 | 0.00 | 0.00 | 90 | 1016.1 |
| 20260505121520 | 50 | 149 | 0.0 | 0.0 | 0.00 | 0.00 | 0.00 | 90 | 1016.1 |
| 20260505121009 | 50 | 149 | 0.0 | 0.0 | 0.00 | 0.00 | 0.00 | 90 | 1016.1 |
| 20260505120508 | 49 | 149 | 0.0 | 0.0 | 0.00 | 0.00 | 0.00 | 90 | 1016.1 |
| 20260505120031 | 49 | 149 | 0.0 | 0.0 | 0.00 | 0.00 | 0.00 | 90 | 1016.0 |
| 20260505115510 | 48 | 149 | 0.0 | 0.0 | 0.00 | 0.00 | 0.00 | 90 | 1015.8 |
| 20260505115009 | 48 | 149 | 0.0 | 0.0 | 0.00 | 0.00 | 0.00 | 90 | 1015.7 |
| 20260505114526 | 48 | 149 | 0.0 | 0.0 | 0.00 | 0.00 | 0.00 | 90 | 1015.7 |
| 20260505114011 | 47 | 149 | 0.0 | 0.0 | 0.00 | 0.00 | 0.00 | 90 | 1015.7 |
| 20260505113507 | 47 | 149 | 0.0 | 0.0 | 0.00 | 0.00 | 0.00 | 90 | 1015.6 |
| 20260505113011 | 47 | 149 | 0.0 | 0.0 | 0.00 | 0.00 | 0.00 | 90 | 1015.5 |
| 20260505112506 | 47 | 149 | 0.0 | 0.0 | 0.00 | 0.00 | 0.00 | 89 | 1015.5 |
| 20260505112006 | 47 | 149 | 0.0 | 0.0 | 0.00 | 0.00 | 0.00 | 89 | 1015.3 |
| 20260505111517 | 47 | 149 | 0.0 | 0.0 | 0.00 | 0.00 | 0.00 | 89 | 1015.3 |
| 20260505111010 | 47 | 149 | 0.0 | 0.0 | 0.00 | 0.00 | 0.00 | 90 | 1015.4 |
| 20260505110507 | 47 | 149 | 0.0 | 0.0 | 0.00 | 0.00 | 0.00 | 89 | 1015.2 |
| 20260505102007 | 48 | 149 | 0.0 | 0.0 | 0.00 | 0.00 | 0.00 | 87 | 1015.1 |
| 20260505101521 | 48 | 149 | 0.0 | 0.0 | 0.00 | 0.00 | 0.00 | 87 | 1015.3 |
| 20260505101007 | 48 | 149 | 0.0 | 0.0 | 0.00 | 0.00 | 0.00 | 87 | 1015.4 |
| 20260505100506 | 48 | 149 | 0.0 | 0.0 | 0.00 | 0.00 | 0.00 | 87 | 1015.5 |
| 20260505100017 | 49 | 149 | 0.0 | 0.0 | 0.00 | 0.00 | 0.00 | 87 | 1015.3 |
| 20260505095506 | 49 | 149 | 0.0 | 0.0 | 0.00 | 0.00 | 0.00 | 87 | 1015.2 |
| 20260505095010 | 49 | 149 | 0.0 | 0.0 | 0.00 | 0.00 | 0.00 | 87 | 1015.3 |
| 20260505094523 | 49 | 149 | 0.0 | 0.0 | 0.00 | 0.00 | 0.00 | 87 | 1015.2 |
| 20260505094008 | 48 | 149 | 0.0 | 0.0 | 0.00 | 0.00 | 0.00 | 88 | 1015.2 |
| 20260505093509 | 48 | 197 | 0.0 | 0.0 | 0.00 | 0.00 | 0.00 | 88 | 1015.1 |
| 20260505093004 | 48 | 218 | 0.0 | 0.0 | 0.00 | 0.00 | 0.00 | 88 | 1015.0 |
| 20260505092508 | 48 | 217 | 0.0 | 0.0 | 0.00 | 0.00 | 0.00 | 87 | 1015.1 |
| 20260505092003 | 48 | 217 | 0.0 | 0.0 | 0.00 | 0.00 | 0.00 | 87 | 1015.1 |
| 20260505091512 | 48 | 218 | 0.0 | 0.0 | 0.00 | 0.00 | 0.00 | 87 | 1015.2 |
| 20260505091004 | 48 | 218 | 0.0 | 0.0 | 0.00 | 0.00 | 0.00 | 87 | 1015.4 |
| 20260505090506 | 48 | 218 | 0.0 | 0.0 | 0.00 | 0.00 | 0.00 | 87 | 1015.4 |
| 20260505090015 | 49 | 217 | 0.0 | 0.0 | 0.00 | 0.00 | 0.00 | 86 | 1015.5 |
| 20260505085509 | 49 | 217 | 0.0 | 0.0 | 0.00 | 0.00 | 0.00 | 86 | 1015.4 |
| 20260505085008 | 49 | 218 | 0.0 | 0.0 | 0.00 | 0.00 | 0.00 | 86 | 1015.4 |
| 20260505084540 | 49 | 217 | 0.0 | 0.0 | 0.00 | 0.00 | 0.00 | 86 | 1015.3 |
| 20260505084006 | 49 | 217 | 0.0 | 0.0 | 0.00 | 0.00 | 0.00 | 86 | 1015.3 |
| 20260505083507 | 49 | 217 | 0.0 | 0.0 | 0.00 | 0.00 | 0.00 | 86 | 1015.3 |
| 20260505083022 | 49 | 217 | 0.0 | 0.0 | 0.00 | 0.00 | 0.00 | 86 | 1015.3 |
| 20260505082509 | 50 | 217 | 0.0 | 0.0 | 0.00 | 0.00 | 0.00 | 86 | 1015.3 |
| 20260505082011 | 50 | 218 | 0.0 | 0.0 | 0.00 | 0.00 | 0.00 | 86 | 1015.4 |
| 20260505081527 | 50 | 218 | 0.0 | 0.0 | 0.00 | 0.00 | 0.00 | 85 | 1015.4 |
| 20260505081003 | 50 | 218 | 0.0 | 0.0 | 0.00 | 0.00 | 0.00 | 85 | 1015.3 |
| 20260505080506 | 50 | 217 | 0.0 | 0.0 | 0.00 | 0.00 | 0.00 | 85 | 1015.3 |
| 20260505080011 | 50 | 217 | 0.0 | 0.0 | 0.00 | 0.00 | 0.00 | 85 | 1015.3 |
| 20260505075507 | 50 | 217 | 0.0 | 0.0 | 0.00 | 0.00 | 0.00 | 85 | 1015.4 |
| 20260505075008 | 50 | 217 | 0.0 | 0.0 | 0.00 | 0.00 | 0.00 | 85 | 1015.3 |
| 20260505074516 | 50 | 218 | 0.0 | 0.0 | 0.00 | 0.00 | 0.00 | 85 | 1015.3 |
| 20260505074006 | 50 | 217 | 0.0 | 0.0 | 0.00 | 0.00 | 0.00 | 85 | 1015.3 |
| 20260505073506 | 50 | 217 | 0.0 | 0.0 | 0.00 | 0.00 | 0.00 | 85 | 1015.2 |
| 20260505073022 | 50 | 218 | 0.0 | 0.0 | 0.00 | 0.00 | 0.00 | 84 | 1015.2 |
| 20260505072508 | 50 | 218 | 0.0 | 0.0 | 0.00 | 0.00 | 0.00 | 84 | 1015.2 |
| 20260505072015 | 50 | 217 | 0.0 | 0.0 | 0.00 | 0.00 | 0.00 | 84 | 1015.2 |
| 20260505071525 | 50 | 217 | 0.0 | 0.0 | 0.00 | 0.00 | 0.00 | 84 | 1015.2 |
| 20260505071011 | 50 | 218 | 0.0 | 0.0 | 0.00 | 0.00 | 0.00 | 84 | 1015.3 |
| 20260505070512 | 51 | 217 | 0.0 | 0.0 | 0.00 | 0.00 | 0.00 | 84 | 1015.2 |
| 20260505070036 | 51 | 217 | 0.0 | 0.0 | 0.00 | 0.00 | 0.00 | 84 | 1015.2 |
| 20260505065514 | 51 | 217 | 0.0 | 0.0 | 0.00 | 0.00 | 0.00 | 83 | 1015.3 |
| 20260505065006 | 51 | 217 | 0.0 | 0.0 | 0.00 | 0.00 | 0.00 | 83 | 1015.2 |
| 20260505064517 | 51 | 218 | 0.0 | 0.0 | 0.00 | 0.00 | 0.00 | 83 | 1015.2 |
| 20260505064013 | 51 | 217 | 0.0 | 0.0 | 0.00 | 0.00 | 0.00 | 83 | 1015.2 |
| 20260505063508 | 52 | 218 | 0.0 | 0.0 | 0.00 | 0.00 | 0.00 | 83 | 1015.3 |
| 20260505063028 | 51 | 217 | 0.0 | 0.0 | 0.00 | 0.00 | 0.00 | 83 | 1015.3 |
| 20260505062509 | 51 | 218 | 0.0 | 0.0 | 0.00 | 0.00 | 0.00 | 83 | 1015.4 |
| 20260505062011 | 52 | 217 | 0.0 | 0.0 | 0.00 | 0.00 | 0.00 | 83 | 1015.5 |
| 20260505061525 | 52 | 218 | 0.0 | 0.0 | 0.00 | 0.00 | 0.00 | 82 | 1015.4 |
| 20260505061007 | 52 | 217 | 0.0 | 0.0 | 0.00 | 0.00 | 0.00 | 82 | 1015.5 |
| 20260505060512 | 52 | 217 | 0.0 | 0.0 | 0.00 | 0.00 | 0.00 | 82 | 1015.5 |
| 20260505060032 | 52 | 217 | 0.0 | 0.0 | 0.00 | 0.00 | 0.00 | 82 | 1015.5 |
| 20260505055513 | 52 | 218 | 0.0 | 0.0 | 0.00 | 0.00 | 0.00 | 82 | 1015.5 |
| 20260505055013 | 52 | 218 | 0.0 | 0.0 | 0.00 | 0.00 | 0.00 | 81 | 1015.5 |
| 20260505054526 | 52 | 217 | 0.0 | 0.0 | 0.00 | 0.00 | 0.00 | 81 | 1015.5 |
| 20260505054019 | 52 | 217 | 0.0 | 0.0 | 0.00 | 0.00 | 0.00 | 80 | 1015.6 |
| 20260505053507 | 53 | 217 | 0.0 | 0.0 | 0.00 | 0.00 | 0.00 | 80 | 1015.5 |
| 20260505053019 | 53 | 217 | 0.0 | 0.0 | 0.00 | 0.00 | 0.00 | 79 | 1015.6 |
| 20260505052510 | 53 | 217 | 0.0 | 0.0 | 0.00 | 0.00 | 0.00 | 79 | 1015.6 |
| 20260505052009 | 53 | 217 | 0.0 | 0.0 | 0.00 | 0.00 | 0.00 | 79 | 1015.6 |
| 20260505051521 | 54 | 217 | 0.0 | 0.0 | 0.00 | 0.00 | 0.00 | 79 | 1015.5 |
| 20260505051007 | 54 | 217 | 0.0 | 0.0 | 0.00 | 0.00 | 0.00 | 78 | 1015.5 |
| 20260505050508 | 54 | 217 | 0.0 | 0.0 | 0.00 | 0.00 | 0.00 | 78 | 1015.4 |
| 20260505041516 | 56 | 217 | 0.0 | 0.0 | 0.00 | 0.00 | 0.00 | 72 | 1015.4 |
| 20260505041006 | 56 | 218 | 0.0 | 0.0 | 0.00 | 0.00 | 0.00 | 72 | 1015.5 |
| 20260505040510 | 57 | 218 | 0.0 | 0.0 | 0.00 | 0.00 | 0.00 | 71 | 1015.5 |
| 20260505040005 | 57 | 217 | 0.0 | 0.0 | 0.00 | 0.00 | 0.00 | 71 | 1015.5 |
| 20260505035506 | 57 | 217 | 0.0 | 0.0 | 0.00 | 0.00 | 0.00 | 71 | 1015.6 |
| 20260505035004 | 57 | 217 | 0.0 | 0.0 | 0.00 | 0.00 | 0.00 | 70 | 1015.7 |
| 20260505034504 | 58 | 217 | 0.0 | 0.0 | 0.00 | 0.00 | 0.00 | 71 | 1015.6 |
| 20260505034003 | 58 | 217 | 0.0 | 0.0 | 0.00 | 0.00 | 0.00 | 71 | 1015.6 |
| 20260505033511 | 58 | 217 | 0.0 | 0.0 | 0.00 | 0.00 | 0.00 | 70 | 1015.7 |
| 20260505033012 | 58 | 217 | 0.0 | 0.0 | 0.00 | 0.00 | 0.00 | 70 | 1015.8 |
| 20260505032507 | 58 | 217 | 0.0 | 0.0 | 0.00 | 0.00 | 0.00 | 70 | 1015.7 |
| 20260505032008 | 58 | 217 | 0.0 | 0.0 | 0.00 | 0.00 | 0.00 | 69 | 1015.7 |
| 20260505031516 | 58 | 218 | 0.0 | 0.0 | 0.00 | 0.00 | 0.00 | 68 | 1015.7 |
| 20260505031006 | 58 | 218 | 0.0 | 0.0 | 0.00 | 0.00 | 0.00 | 69 | 1015.7 |
| 20260505030509 | 58 | 218 | 0.0 | 0.0 | 0.00 | 0.00 | 0.00 | 69 | 1015.7 |
| 20260505030020 | 59 | 217 | 0.0 | 0.0 | 0.00 | 0.00 | 0.00 | 68 | 1015.7 |
| 20260505025508 | 59 | 217 | 0.0 | 0.0 | 0.00 | 0.00 | 0.00 | 67 | 1015.6 |
| 20260505025007 | 59 | 217 | 0.0 | 0.0 | 0.00 | 0.00 | 0.00 | 67 | 1015.7 |
| 20260505024521 | 59 | 218 | 0.0 | 0.0 | 0.00 | 0.00 | 0.00 | 66 | 1015.6 |
| 20260505024004 | 59 | 217 | 0.0 | 0.0 | 0.00 | 0.00 | 0.00 | 65 | 1015.6 |
| 20260505023504 | 59 | 217 | 0.0 | 0.0 | 0.00 | 0.00 | 0.00 | 64 | 1015.5 |
| 20260505023008 | 60 | 217 | 0.0 | 0.0 | 0.00 | 0.00 | 0.00 | 64 | 1015.3 |
| 20260505022502 | 60 | 217 | 0.0 | 0.0 | 0.00 | 0.00 | 0.00 | 64 | 1015.4 |
| 20260505022006 | 60 | 217 | 0.0 | 0.0 | 0.00 | 0.00 | 0.00 | 63 | 1015.3 |
| 20260505021512 | 60 | 217 | 0.0 | 0.0 | 0.00 | 0.00 | 0.00 | 62 | 1015.3 |
| 20260505021006 | 60 | 217 | 0.0 | 0.0 | 0.00 | 0.00 | 0.00 | 61 | 1015.2 |
| 20260505020507 | 61 | 217 | 0.0 | 0.0 | 0.00 | 0.00 | 0.00 | 61 | 1015.3 |
| 20260505020018 | 61 | 218 | 0.0 | 0.0 | 0.00 | 0.00 | 0.00 | 60 | 1015.2 |
| 20260505015507 | 61 | 218 | 0.0 | 0.0 | 0.00 | 0.00 | 0.00 | 60 | 1015.3 |
| 20260505015008 | 62 | 217 | 0.0 | 0.0 | 0.00 | 0.00 | 0.00 | 59 | 1015.2 |
| 20260505014518 | 62 | 218 | 0.0 | 0.0 | 0.00 | 0.00 | 0.00 | 58 | 1015.2 |
| 20260505014010 | 62 | 217 | 0.0 | 0.0 | 0.00 | 0.00 | 0.00 | 57 | 1015.1 |
| 20260505013509 | 63 | 217 | 0.0 | 0.0 | 0.00 | 0.00 | 0.00 | 57 | 1015.1 |
| 20260505013024 | 63 | 217 | 0.0 | 0.0 | 0.00 | 0.00 | 0.00 | 56 | 1015.0 |
| 20260505012507 | 63 | 218 | 0.0 | 0.0 | 0.00 | 0.00 | 0.00 | 55 | 1015.1 |
| 20260505012006 | 64 | 217 | 0.0 | 0.0 | 0.00 | 0.00 | 0.00 | 54 | 1015.0 |
| 20260505011520 | 64 | 217 | 0.0 | 0.0 | 0.00 | 0.00 | 0.00 | 54 | 1015.0 |
| 20260505011004 | 64 | 217 | 0.0 | 0.0 | 0.00 | 0.00 | 0.00 | 52 | 1014.9 |
| 20260505010506 | 65 | 217 | 0.0 | 0.0 | 0.00 | 0.00 | 0.00 | 52 | 1014.8 |
| 20260505010017 | 65 | 217 | 0.0 | 0.0 | 0.00 | 0.00 | 0.00 | 50 | 1014.8 |
| 20260505005506 | 66 | 217 | 0.0 | 0.0 | 0.00 | 0.00 | 0.00 | 50 | 1014.8 |
| 20260505005007 | 66 | 217 | 0.0 | 0.0 | 0.00 | 0.00 | 0.00 | 49 | 1014.8 |
| 20260505004516 | 66 | 217 | 0.0 | 0.0 | 0.00 | 0.00 | 0.00 | 48 | 1014.7 |
| 20260505004006 | 67 | 217 | 0.0 | 0.0 | 0.00 | 0.00 | 0.00 | 48 | 1014.7 |
| 20260505003508 | 67 | 217 | 0.0 | 0.0 | 0.00 | 0.00 | 0.00 | 47 | 1014.7 |
| 20260505003020 | 68 | 218 | 0.0 | 0.0 | 0.00 | 0.00 | 0.00 | 46 | 1014.6 |
| 20260505002512 | 68 | 218 | 0.0 | 0.0 | 0.00 | 0.00 | 0.00 | 46 | 1014.6 |